Weather in Safonovo

Russia / Murmansk Oblast     69°03′22″N   33°17′31″E
temp.,
°C
wind,
m/s
gust,
m/s
humid.,
%
clouds,
%
prec.,
mm/h
press.,
hPa
HPBL,
m
18 may, tue
tue1800:00+8s228735 0.0 101319
03:00+7s338859 0.0 101319
06:00+9sse2292100 0.8 101257
09:00+12se2477100 0.9 1010218
12:00+15sse3968100 0.0 1009416
15:00+13se3687100 1.1 1008208
18:00+12sse3493100 1.3 100563
21:00+12ssw3594100 1.3 1005125
19 may, wed
wed1900:00+10wsw229564 0.0 100521
03:00+9sw229518 0.0 100617
06:00+10sw289288 0.0 1006231
09:00+13wsw476895 0.0 1007523
12:00+15wsw4549100 0.0 1008879
15:00+16wsw2449100 0.0 1008837
18:00+12nw3469100 0.0 1008191
21:00+10nne478386 0.2 1008329
20 may, thu
thu2000:00+9nne41088100 0.4 1007354
03:00+8ne71491100 1.1 1004506
06:00+8ene5895100 0.1 1002343
09:00+10s0290100 0.1 1002226
12:00+11n4385100 0.0 1002179
15:00+10n3284100 0.1 1002172
18:00+13n32749 0.2 999220
21:00+11nw158564 0.3 999159
21 may, fri
fri2100:00+11wsw477954 0.0 1000176
03:00+8sw2279100 0.0 100017
06:00+9nne2382100 0.1 998173
09:00+5n5796100 1.3 998346
12:00+4n6795100 0.1 997387
15:00+3n5796100 0.9 996385
18:00+2nnw4795100 2.9 997480
21:00+2wnw3699100 3.8 998262
22 may, sat
sat2200:00+1wnw4899100 1.7 999311
03:00+1nw5999100 2.9 1001412
06:00+1nw5890100 0.6 1004696
09:00+2wnw666981 0.8 10061084
12:00+3wnw666099 0.1 10091476
15:00+4wnw5652100 0.3 10111554
18:00+4wnw444974 0.0 10111388
21:00+4w115587 0.0 1012656